Location: Goudex
(43.3760°N, 0.9543°E)
Time: 12:46:45
(UTC+00:00)

Cosmos 2237 Rocket - Pass Details

Date: 20 November 2019
Orbit: 834 x 850 km, 71.0° (Epoch: 12 December)

Event Time Altitude Azimuth Distance (km) Brightness Sun altitude
Rises 05:50:14 0° 343° (NNW) 3,421 5.0 -11.8°
Reaches altitude 10° 05:53:07 10° 355° (N) 2,480 4.4 -11.3°
Maximum altitude 05:57:51 26° 52° (NE) 1,593 4.1 -10.5°
Drops below altitude 10° 06:02:34 10° 109° (ESE) 2,460 6.3 -9.7°
Sets 06:05:23 0° 121° (ESE) 3,388 7.2 -9.2°
